Wind_Speed
12 12 13 13 14 14 14 14 14 15 14 15 15 15 15 15 15 15 16 17 17 18 18 19 19 19 19 19 18 17 15 15 14 13 12 11 10 11 11 11 12 13 13
12 13 13 13 14 14 14 14 14 14 14 14 13 13 13 14 16 16 16 17 17 18 19 19 20 20 20 20 19 18 17 16 15 14 13 12 12 12 12 11 12 12 13
12 13 13 13 14 14 14 14 14 13 13 12 12 12 12 13 14 16 17 17 18 18 19 20 21 21 21 21 20 19 18 17 16 16 15 14 13 13 13 12 12 12 12
12 13 13 13 14 14 15 14 13 12 11 11 11 11 11 11 13 15 16 17 18 18 19 20 21 22 22 22 21 20 19 18 18 17 16 15 14 15 14 13 12 13 13
12 13 13 13 14 15 15 13 12 12 11 10 10 10 10 10 12 13 15 17 18 19 20 21 22 22 22 22 22 21 20 19 19 18 17 16 16 16 15 14 13 13 13
12 13 13 13 15 15 14 13 12 11 10 9 9 8 8 8 9 11 14 16 18 19 20 21 22 23 23 23 23 22 21 21 20 19 18 18 18 17 16 15 14 13 13
12 13 13 14 15 15 14 13 12 11 9 8 7 6 5 6 8 10 12 15 17 19 20 21 22 23 23 23 23 22 21 21 21 21 19 19 19 19 18 16 16 14 14
13 13 14 14 14 14 14 13 12 11 9 8 7 5 3 4 6 9 11 13 16 17 19 20 22 22 23 23 23 22 21 21 22 22 21 20 20 20 19 18 17 16 15
13 13 13 14 15 14 14 13 13 12 10 9 7 5 3 2 4 7 10 13 15 17 18 19 21 22 22 23 23 23 22 22 22 22 22 21 21 20 20 19 19 18 17
13 13 13 14 14 14 14 13 13 12 11 9 7 5 3 1 3 5 8 11 13 15 17 18 20 21 21 23 24 22 22 22 23 23 22 22 22 22 21 21 20 19 18
14 14 14 14 14 14 14 13 13 12 12 10 8 6 4 1 1 4 6 9 11 14 16 18 19 20 22 22 23 23 22 23 23 23 24 23 22 23 23 22 22 21 20
14 14 14 14 15 15 14 13 14 13 12 11 9 7 5 2 1 3 5 8 10 12 14 16 17 19 21 22 23 23 23 23 23 23 24 24 23 24 24 24 23 22 21
14 15 15 15 15 16 15 14 14 14 13 11 9 8 6 4 2 2 4 6 9 10 13 15 16 17 19 21 23 23 23 23 24 24 24 24 24 24 25 24 24 24 23
14 15 16 16 17 16 16 15 14 14 13 12 10 8 6 4 3 0 2 5 7 9 11 14 15 16 18 20 22 22 23 24 24 24 25 25 25 25 25 25 25 25 25
14 15 15 16 16 17 16 16 14 14 13 13 11 9 7 5 3 2 2 4 6 9 10 13 15 17 18 19 21 23 24 24 24 25 25 26 26 26 26 26 26 26 26
14 15 15 16 16 17 17 17 15 14 13 13 11 9 7 6 4 3 3 4 6 8 10 12 14 16 18 19 20 22 24 24 25 26 26 26 26 26 26 26 26 26 26
14 15 15 16 16 17 17 17 16 15 13 13 12 10 8 7 6 5 4 4 6 7 9 11 13 15 17 19 21 22 24 24 25 26 27 27 26 26 26 27 27 27 27
14 15 16 16 16 17 17 17 17 16 15 13 13 12 10 9 8 7 6 7 7 8 10 11 13 15 17 19 21 22 24 25 25 26 27 27 27 27 27 27 27 28 28
15 16 16 17 17 17 17 17 17 17 16 15 14 14 13 11 10 9 9 8 9 10 11 12 14 15 17 19 20 22 24 25 25 26 27 27 28 28 27 28 29 29 29
15 16 17 18 18 18 18 18 18 18 18 17 16 16 15 14 13 13 12 12 11 12 13 14 15 16 18 19 20 22 24 25 25 25 27 28 29 29 29 29 29 30 30
17 18 19 19 19 19 19 20 20 20 20 19 19 19 18 16 16 15 15 15 15 15 15 16 17 18 19 21 21 22 24 26 26 26 27 29 29 30 31 31 31 31 31
18 19 20 21 21 21 21 21 21 22 22 22 22 22 21 20 19 18 18 17 18 18 18 19 19 20 21 22 23 24 25 26 27 28 28 29 30 30 31 31 32 32 32
20 21 22 23 23 23 23 24 24 24 25 25 25 24 24 24 23 22 22 21 21 21 21 22 22 23 23 24 25 26 26 28 28 29 30 30 31 31 32 32 33 33 33
23 24 25 26 26 26 27 27 28 28 29 28 28 27 26 26 26 26 25 26 26 25 24 24 25 26 26 27 27 28 29 29 29 30 31 31 32 32 33 33 33 34 34
26 27 28 28 29 29 30 31 32 32 32 32 31 31 30 30 30 30 29 29 29 30 29 28 28 28 29 30 30 31 32 32 32 33 33 33 33 33 34 34 34 34 34
29 30 31 31 32 32 33 35 35 35 35 35 34 34 34 34 34 34 33 33 33 33 33 32 32 32 32 33 34 34 34 34 34 35 36 35 35 35 35 35 35 35 36
Wind_Direction
330 329 329 329 327 322 317 313 309 303 295 288 283 277 268 261 255 247 240 234 226 220 218 215 212 212 208 205 204 202 198 194 192 189 186 180 173 164 158 152 150 148 148
335 335 335 334 331 329 325 319 315 309 301 294 286 279 270 259 251 243 237 231 224 219 216 213 211 209 206 204 204 202 198 197 196 194 189 185 181 174 168 163 158 156 155
339 339 339 338 338 336 332 326 320 314 306 298 290 281 271 259 249 240 235 229 223 220 216 213 210 209 207 204 205 203 200 200 198 196 194 191 189 183 176 172 168 167 164
342 342 342 342 342 341 339 333 327 322 315 306 296 284 271 258 245 237 232 227 222 218 214 211 210 208 206 206 205 204 203 202 201 199 197 195 192 188 184 182 180 176 172
344 345 345 345 345 344 342 339 334 331 324 315 303 288 272 256 241 233 229 224 218 215 212 210 207 207 206 205 204 205 205 204 203 202 200 199 196 194 191 189 186 184 182
348 348 349 350 350 349 348 346 342 338 333 325 315 297 274 255 238 229 226 220 215 213 211 209 208 207 206 205 204 205 206 205 205 204 202 201 200 198 197 195 193 192 192
354 354 353 353 353 353 353 352 350 346 345 340 330 312 281 254 236 229 221 214 212 210 209 208 208 207 206 205 207 206 207 207 207 207 206 205 204 203 201 200 200 200 200
358 358 357 355 356 356 357 358 358 357 356 354 348 337 299 252 230 220 215 210 208 207 207 207 207 207 207 208 207 207 208 210 210 209 209 208 207 207 205 206 206 206 206
1 360 0 0 0 1 360 0 2 2 1 1 360 355 339 270 228 211 208 207 204 204 205 207 208 209 209 208 208 210 212 212 212 213 212 211 210 210 208 209 208 209 209
6 5 5 5 5 5 4 3 5 7 8 9 9 9 4 335 220 206 205 202 202 205 205 206 208 210 209 209 210 211 212 213 214 214 213 211 211 211 211 212 212 212 213
10 9 9 9 9 8 9 8 9 11 14 16 18 19 19 22 192 197 198 200 202 204 207 208 210 211 209 209 211 213 215 215 216 216 216 216 215 214 215 214 215 217 218
15 14 13 14 14 13 12 13 15 15 17 20 22 23 24 29 113 186 199 206 205 206 208 209 211 212 211 211 212 215 218 217 218 219 219 219 218 217 217 218 218 220 220
18 17 16 15 15 15 16 17 18 18 19 21 22 23 29 38 59 173 200 206 206 209 211 211 213 214 213 213 215 217 219 220 220 221 220 220 220 220 219 221 223 223 223
15 15 15 16 15 15 17 18 19 19 20 21 21 22 25 33 38 101 205 208 212 213 215 217 216 214 214 215 217 218 218 219 220 221 222 221 220 220 222 225 226 227 227
15 14 13 13 14 13 13 15 16 18 18 18 19 18 15 14 9 342 251 229 224 221 222 222 220 217 218 217 219 220 219 221 223 224 224 224 224 224 226 227 228 229 229
11 10 10 9 8 8 9 10 11 13 14 14 13 12 8 5 357 335 285 250 239 232 228 225 223 221 221 219 221 221 221 223 225 225 226 227 227 227 227 228 230 232 232
7 5 4 3 3 3 4 4 5 6 5 4 3 3 357 347 335 322 302 273 250 239 234 229 228 227 227 227 226 224 223 225 225 226 227 228 229 228 228 230 231 233 233
358 360 359 358 357 357 358 358 358 357 357 356 354 351 347 337 323 313 299 283 267 255 245 238 234 232 231 231 230 229 228 228 228 228 229 228 228 228 229 232 233 234 235
348 349 350 350 349 349 350 350 350 349 348 345 343 341 338 331 320 310 300 290 277 266 258 249 241 237 235 234 233 231 230 229 229 230 230 230 229 228 230 233 234 235 236
340 341 342 342 341 341 341 340 340 340 338 336 334 331 328 323 317 308 300 292 284 274 264 256 250 246 241 238 236 233 231 230 232 233 231 230 231 231 232 233 234 235 237
332 333 334 334 333 333 333 333 332 331 330 328 326 324 322 316 311 307 301 294 286 279 271 262 256 252 249 245 242 238 235 234 234 235 233 232 232 233 234 236 236 237 237
325 326 328 328 327 327 327 327 326 324 322 321 318 316 314 311 307 302 298 293 287 279 273 267 261 255 253 251 248 244 240 236 237 236 236 236 235 235 236 237 238 238 239
318 320 322 322 321 320 321 320 319 318 316 314 312 309 306 305 302 298 295 292 288 282 274 269 263 258 254 252 251 247 244 240 239 238 237 237 237 237 238 239 239 239 240
313 315 317 316 315 314 314 313 313 312 312 310 307 304 301 298 297 295 291 289 287 283 277 271 266 261 257 254 252 250 248 245 242 241 239 238 238 239 240 240 240 240 241
309 311 312 312 311 311 311 311 310 309 308 306 303 300 297 294 292 291 289 287 284 282 278 272 268 264 261 256 253 252 250 247 244 242 241 239 240 241 241 241 241 242 242
306 307 309 308 307 307 308 309 308 307 306 304 302 298 295 292 290 288 286 284 283 280 277 272 268 266 263 259 255 254 252 249 246 244 243 243 242 242 242 242 242 242 242
Height
5849 5847 5845 5842 5840 5837 5835 5833 5831 5830 5828 5827 5826 5826 5826 5827 5828 5829 5831 5833 5836 5839 5842 5845 5848 5852 5855 5859 5862 5865 5868 5871 5874 5877 5879 5880 5882 5883 5884 5886 5887 5889 5890
5847 5845 5842 5840 5837 5834 5832 5830 5828 5826 5825 5823 5822 5822 5822 5823 5824 5825 5827 5830 5832 5835 5839 5842 5845 5849 5853 5856 5860 5864 5867 5870 5873 5876 5878 5880 5882 5883 5885 5887 5888 5890 5891
5845 5842 5840 5837 5835 5832 5829 5827 5825 5823 5821 5820 5819 5818 5818 5819 5820 5821 5824 5826 5829 5832 5836 5839 5842 5846 5850 5854 5858 5862 5865 5868 5871 5874 5877 5879 5881 5883 5885 5887 5889 5891 5892
5843 5840 5838 5835 5832 5830 5827 5824 5822 5820 5818 5816 5815 5814 5814 5815 5816 5818 5820 5823 5826 5829 5832 5836 5840 5843 5847 5852 5856 5859 5863 5866 5870 5873 5875 5878 5880 5882 5885 5887 5889 5891 5893
5841 5839 5836 5833 5831 5828 5825 5822 5820 5817 5815 5813 5812 5811 5811 5812 5813 5814 5817 5820 5823 5826 5830 5833 5837 5841 5845 5849 5853 5857 5861 5864 5868 5871 5874 5877 5879 5882 5884 5886 5888 5890 5892
5840 5838 5835 5832 5829 5826 5823 5821 5818 5815 5813 5811 5809 5808 5808 5809 5810 5811 5814 5817 5820 5823 5827 5831 5835 5839 5843 5847 5850 5854 5858 5862 5865 5869 5872 5875 5878 5880 5883 5885 5888 5890 5892
5839 5837 5834 5831 5828 5825 5822 5819 5817 5814 5812 5809 5808 5807 5806 5807 5808 5809 5811 5814 5817 5821 5824 5828 5832 5836 5840 5844 5848 5852 5855 5859 5863 5866 5870 5873 5876 5879 5881 5884 5887 5889 5891
5839 5836 5833 5831 5828 5824 5822 5819 5816 5813 5811 5808 5807 5806 5805 5806 5806 5808 5810 5812 5815 5819 5822 5826 5830 5834 5838 5841 5845 5849 5853 5857 5860 5863 5867 5870 5873 5876 5879 5882 5885 5887 5889
5838 5836 5833 5830 5827 5824 5821 5818 5815 5813 5810 5808 5806 5805 5805 5805 5805 5807 5808 5811 5814 5817 5820 5824 5828 5831 5835 5839 5843 5846 5850 5854 5857 5861 5864 5867 5870 5874 5877 5880 5882 5885 5887
5838 5835 5833 5830 5827 5824 5821 5818 5816 5813 5810 5808 5806 5805 5805 5804 5805 5806 5808 5810 5812 5815 5819 5822 5825 5829 5832 5836 5840 5844 5847 5851 5854 5858 5861 5864 5867 5871 5874 5877 5880 5882 5884
5838 5836 5833 5830 5827 5824 5821 5819 5816 5813 5811 5809 5807 5806 5805 5805 5805 5806 5807 5809 5811 5814 5817 5820 5823 5826 5830 5833 5837 5841 5844 5848 5851 5854 5858 5861 5864 5867 5871 5874 5877 5879 5882
5839 5836 5834 5831 5828 5825 5822 5819 5816 5814 5812 5809 5808 5806 5806 5805 5805 5806 5807 5808 5810 5813 5815 5818 5821 5824 5827 5830 5834 5837 5841 5844 5848 5851 5854 5857 5860 5863 5867 5870 5873 5876 5878
5840 5837 5834 5831 5828 5825 5822 5820 5817 5815 5812 5810 5809 5807 5806 5806 5806 5806 5807 5808 5810 5812 5814 5816 5819 5822 5824 5827 5831 5834 5837 5841 5844 5847 5850 5853 5856 5859 5863 5866 5869 5871 5874
5840 5838 5835 5832 5829 5826 5823 5820 5818 5815 5813 5811 5810 5808 5808 5807 5807 5807 5807 5808 5809 5811 5812 5815 5817 5819 5822 5824 5827 5830 5834 5837 5840 5843 5846 5849 5852 5855 5858 5861 5864 5866 5869
5841 5838 5836 5833 5830 5827 5824 5821 5819 5816 5814 5812 5811 5809 5808 5808 5807 5807 5807 5808 5809 5809 5811 5813 5814 5817 5819 5821 5824 5827 5830 5833 5836 5839 5841 5845 5848 5850 5853 5856 5859 5861 5864
5841 5838 5836 5833 5830 5828 5825 5822 5819 5817 5815 5813 5811 5810 5809 5808 5807 5807 5806 5806 5807 5808 5809 5810 5812 5813 5815 5817 5820 5822 5825 5828 5831 5834 5837 5840 5842 5845 5848 5851 5854 5856 5859
5841 5838 5836 5833 5830 5828 5825 5822 5820 5817 5815 5813 5811 5810 5808 5807 5806 5806 5805 5805 5805 5806 5807 5808 5809 5810 5812 5814 5816 5818 5821 5823 5826 5829 5831 5834 5837 5840 5843 5846 5848 5851 5853
5841 5838 5836 5833 5830 5827 5825 5822 5820 5817 5815 5813 5811 5809 5808 5806 5805 5805 5804 5804 5804 5804 5805 5805 5806 5807 5808 5810 5811 5814 5816 5818 5821 5823 5826 5829 5831 5834 5837 5840 5842 5845 5848
5840 5837 5835 5832 5829 5827 5824 5821 5819 5816 5814 5812 5810 5808 5806 5805 5804 5803 5802 5802 5801 5801 5802 5802 5803 5803 5804 5806 5807 5809 5811 5813 5815 5818 5820 5823 5825 5828 5831 5834 5836 5839 5841
5838 5835 5833 5830 5828 5825 5822 5820 5817 5815 5812 5810 5808 5806 5804 5803 5802 5801 5800 5799 5798 5798 5798 5799 5799 5800 5800 5801 5803 5804 5806 5807 5810 5812 5814 5816 5819 5822 5824 5827 5830 5832 5834
5835 5833 5830 5828 5825 5822 5820 5817 5814 5812 5809 5807 5805 5803 5801 5800 5798 5797 5796 5795 5795 5794 5794 5794 5795 5795 5796 5797 5797 5798 5800 5802 5804 5806 5808 5810 5812 5815 5817 5820 5822 5825 5827
5832 5829 5826 5823 5821 5818 5816 5813 5811 5808 5806 5803 5801 5799 5797 5796 5794 5793 5792 5791 5790 5790 5789 5789 5789 5790 5790 5791 5791 5792 5793 5795 5797 5799 5800 5803 5805 5807 5810 5812 5814 5817 5819
5828 5825 5822 5818 5816 5813 5810 5808 5805 5803 5800 5798 5795 5793 5791 5790 5788 5787 5786 5785 5784 5784 5783 5783 5783 5783 5784 5784 5785 5786 5787 5788 5790 5791 5793 5795 5797 5800 5802 5804 5806 5809 5811
5822 5819 5816 5813 5810 5807 5804 5801 5798 5795 5793 5790 5788 5786 5784 5782 5781 5779 5779 5778 5777 5776 5776 5775 5776 5776 5776 5777 5777 5778 5779 5780 5782 5783 5785 5787 5789 5791 5793 5795 5798 5800 5802
5816 5813 5809 5806 5802 5799 5796 5793 5790 5786 5783 5780 5778 5776 5774 5773 5771 5770 5769 5769 5768 5767 5766 5766 5767 5767 5767 5768 5768 5769 5770 5772 5773 5775 5776 5778 5780 5782 5784 5786 5788 5790 5793
5809 5805 5802 5798 5794 5791 5787 5784 5780 5776 5773 5770 5767 5764 5763 5761 5760 5759 5759 5758 5757 5757 5756 5756 5756 5757 5757 5758 5759 5760 5761 5762 5763 5765 5767 5769 5770 5772 5775 5777 5778 5781 5783